Home > Weather > Almere > Past weeks

Flag for Netherlands Weather for the Past 2 Weeks in Almere, Netherlands

Now
41 °F

Broken clouds.


Feels Like: 36 °F
Forecast: 32 / 41 °F
Wind: 8 mph from Southeast

Location: Amsterdam Schiphol Airport

Current Time: Feb 12, 2016 at 3:34:43 PM

Latest Report: Feb 12, 2016 at 2:55 PM


Visibility: N/A

Pressure: 29.45 "Hg

Humidity: 81%

Dew point: 36 °F

Location of AlmereLocation

Historic Weather in Almere — Graph

°F

Almere Temperature Yesterday

Maximum temperature yesterday: 46 °F (at 2:25 PM)
Minimum temperature yesterday: 34 °F (at 8:55 PM)
Average temperature yesterday: 40 °F

High & Low Weather Summary for the Past Weeks

 TemperatureHumidityPressure
High54 °F (Feb 1, 8:25 AM)100% (Jan 31, 4:55 PM)30.27 "Hg (Jan 31, 4:55 PM)
Low32 °F (Feb 12, 12:25 AM)57% (Jan 30, 8:55 PM)28.94 "Hg (Feb 9, 3:25 PM)
Average45 °F81%29.70 "Hg
* Reported Jan 28 2:25 PM — Feb 12 2:25 PM, Almere, Weather by CustomWeather, © 2016

Note: Actual official high and low records may vary slightly from our data, if they occured in-between our weather recording intervals... More about our weather records

Advertising

Almere Weather History for the Previous 24 Hours

 ConditionsComfort  
Time TempWeatherWind HumidityBarometerVisibility
2:25 PM
Fri, Feb 12
43 °FPartly sunny.8 mph81%29.45 "HgN/A
1:55 PM41 °FBroken clouds.10 mph87%29.47 "HgN/A
1:25 PM41 °FPartly sunny.10 mph87%29.47 "HgN/A
12:55 PM41 °FPartly sunny.10 mph87%29.47 "HgN/A
12:25 PM39 °FPartly sunny.9 mph93%29.50 "HgN/A
11:55 AM39 °FBroken clouds.10 mph93%29.50 "HgN/A
11:25 AM39 °FPartly sunny.13 mph93%29.50 "Hg4 mi
10:55 AM39 °FScattered clouds.8 mph93%29.50 "HgN/A
10:25 AM41 °FPassing clouds.7 mph87%29.50 "HgN/A
9:55 AM37 °FPassing clouds.8 mph93%29.50 "Hg5 mi
9:25 AM37 °FScattered showers. Fog.8 mph93%29.53 "Hg3 mi
8:55 AM37 °FFog.8 mph93%29.53 "Hg3 mi
8:25 AM36 °FSprinkles. Fog.10 mph100%29.53 "Hg2 mi
7:55 AM36 °FChilly.8 mph100%29.56 "Hg1 mi
7:25 AM36 °FMostly cloudy.7 mph100%29.56 "Hg1 mi
6:55 AM36 °FFog.10 mph93%29.56 "Hg0 mi
6:25 AM36 °FFog.10 mph93%29.56 "Hg1 mi
5:55 AM36 °FFog.7 mph100%29.56 "Hg2 mi
5:25 AM34 °FFog.7 mph100%29.56 "Hg2 mi
4:55 AM34 °FDense fog.2 mph100%29.59 "Hg1 mi
4:25 AM32 °FFog.5 mph100%29.59 "Hg0 mi
3:55 AM34 °FFog.6 mph93%29.59 "Hg0 mi
3:25 AM32 °FIce fog.7 mph100%29.59 "Hg1 mi
2:55 AM32 °FIce fog.3 mph100%29.59 "Hg1 mi
2:25 AM32 °FIce fog.5 mph100%29.59 "Hg2 mi
1:55 AM32 °FIce fog.6 mph100%29.62 "Hg3 mi
1:25 AM32 °FFog.5 mph93%29.62 "Hg4 mi
12:55 AM34 °FFog.6 mph93%29.62 "Hg4 mi
12:25 AM32 °FClear.6 mph93%29.62 "Hg10 mi
11:55 PM
Thu, Feb 11
34 °FClear.7 mph93%29.62 "Hg10 mi
10:25 PM34 °FPassing clouds.7 mph93%29.65 "HgN/A
9:55 PM34 °FPassing clouds.7 mph93%29.65 "HgN/A
9:25 PM34 °FClear.8 mph93%29.65 "Hg10 mi
8:55 PM34 °FClear.8 mph93%29.65 "Hg10 mi
8:25 PM36 °FClear.6 mph87%29.65 "Hg10 mi
7:55 PM36 °FPassing clouds.6 mph87%29.65 "HgN/A
7:25 PM36 °FPassing clouds.7 mph87%29.65 "HgN/A
6:55 PM39 °FPassing clouds.9 mph81%29.65 "HgN/A
6:25 PM41 °FPassing clouds.9 mph76%29.65 "HgN/A
5:55 PM41 °FPassing clouds.9 mph81%29.62 "HgN/A
5:25 PM41 °FPassing clouds.8 mph81%29.62 "HgN/A
4:55 PM43 °FPassing clouds.13 mph76%29.62 "HgN/A
4:25 PM43 °FPassing clouds.12 mph71%29.62 "HgN/A
3:55 PM45 °FPassing clouds.13 mph66%29.62 "HgN/A
3:25 PM45 °FPassing clouds.12 mph66%29.62 "HgN/A
Weather by CustomWeather, © 2016

See weather overviewHow to use our weather pages